User: anonymous   Login
Location: Pilipovskiye Korichintsy
(49.1833°N, 27.4667°E)
Time: 08:44:50
(UTC+00:00)
Language:

SL-16 R/B - Orbit

View from above orbital plane
View from above orbital plane
View from above satellite
View from above satellite

Ground track
Ground track

The orbit data is extracted from the following two-line orbital elements,

1 31793U 07029B   20265.81788687 -.00000000 +00000-0 +24837-4 0  9998
2 31793 070.9759 043.9317 0001823 257.0629 209.2769 14.14429555683309
Epoch (UTC): 21 September 2020 19:37:45
Eccentricity: 0.0001823
inclination: 70.9759°
perigee height: 843 km
apogee height: 845 km
right ascension of ascending node: 43.9317°
argument of perigee: 257.0629°
revolutions per day: 14.14429555
mean anomaly at epoch: 209.2769°
orbit number at epoch: 68330

The dashed part of the orbit path shows where the satellite is in the earth's shadow,  

DLR